Time,TemperatureF,DewpointF,PressureIn,WindDirection,WindDirectionDegrees,WindSpeedMPH,WindSpeedGustMPH,Humidity,HourlyPrecipIn,Conditions,Clouds,dailyrainin,SoftwareType,DateUTC
2013-11-15 00:12:00,43.0,38.0,30.06,WNW,291,0.0,0.0,82,0.00,,,0.00,,2013-11-15 06:12:00,
2013-11-15 00:23:00,42.0,38.0,30.06,WNW,291,0.0,0.0,84,0.00,,,0.00,,2013-11-15 06:23:00,
2013-11-15 00:43:00,42.0,38.0,30.07,WNW,291,0.0,0.0,85,0.00,,,0.00,,2013-11-15 06:43:00,
2013-11-15 00:53:00,42.0,38.0,30.07,WNW,291,0.0,0.0,85,0.00,,,0.00,,2013-11-15 06:53:00,
2013-11-15 01:12:00,42.0,38.0,30.07,WNW,291,0.0,0.0,87,0.00,,,0.00,,2013-11-15 07:12:00,
2013-11-15 01:21:00,42.0,37.0,30.07,NW,313,0.0,1.0,82,0.00,,,0.00,,2013-11-15 07:21:00,
2013-11-15 01:42:00,43.0,37.0,30.06,NW,313,0.0,0.0,80,0.00,,,0.00,,2013-11-15 07:42:00,
2013-11-15 01:52:00,43.0,37.0,30.05,NE,56,0.0,0.0,79,0.00,,,0.00,,2013-11-15 07:52:00,
2013-11-15 02:11:00,43.0,38.0,30.05,NE,56,0.0,0.0,81,0.00,,,0.00,,2013-11-15 08:11:00,
2013-11-15 02:21:00,43.0,38.0,30.05,NE,56,0.0,0.0,83,0.00,,,0.00,,2013-11-15 08:21:00,
2013-11-15 02:42:00,42.0,37.0,30.04,NE,56,0.0,0.0,83,0.00,,,0.00,,2013-11-15 08:42:00,
2013-11-15 02:52:00,42.0,38.0,30.04,NE,56,0.0,0.0,84,0.00,,,0.00,,2013-11-15 08:52:00,
2013-11-15 03:22:00,42.0,37.0,30.03,NE,56,0.0,0.0,83,0.00,,,0.00,,2013-11-15 09:22:00,
2013-11-15 03:43:00,43.0,37.0,30.03,East,86,0.0,4.0,78,0.00,,,0.00,,2013-11-15 09:43:00,
2013-11-15 03:53:00,45.0,35.0,30.02,ENE,71,0.0,2.0,69,0.00,,,0.00,,2013-11-15 09:53:00,
2013-11-15 04:12:00,45.0,34.0,30.02,ENE,68,0.0,2.0,66,0.00,,,0.00,,2013-11-15 10:12:00,
2013-11-15 04:23:00,45.0,35.0,30.01,ENE,75,0.0,4.0,67,0.00,,,0.00,,2013-11-15 10:23:00,
2013-11-15 04:43:00,45.0,35.0,30.01,ENE,74,0.0,4.0,67,0.00,,,0.00,,2013-11-15 10:43:00,
2013-11-15 04:52:00,45.0,34.0,30.02,ENE,66,0.0,2.0,66,0.00,,,0.00,,2013-11-15 10:52:00,
2013-11-15 05:12:00,46.0,34.0,30.02,NE,43,0.0,2.0,63,0.00,,,0.00,,2013-11-15 11:12:00,
2013-11-15 05:22:00,46.0,33.0,30.02,North,5,0.0,2.0,61,0.00,,,0.00,,2013-11-15 11:22:00,
2013-11-15 05:42:00,46.0,34.0,30.02,ENE,65,0.0,5.0,63,0.00,,,0.00,,2013-11-15 11:42:00,
2013-11-15 05:52:00,46.0,34.0,30.01,West,280,1.0,5.0,62,0.00,,,0.00,,2013-11-15 11:52:00,
2013-11-15 06:11:00,46.0,37.0,30.02,North,5,0.0,5.0,71,0.00,,,0.00,,2013-11-15 12:11:00,
2013-11-15 06:21:00,46.0,37.0,30.02,North,5,0.0,5.0,71,0.00,,,0.00,,2013-11-15 12:21:00,
2013-11-15 06:42:00,44.0,39.0,30.02,NNE,18,0.0,4.0,84,0.02,,,0.02,,2013-11-15 12:42:00,
2013-11-15 06:52:00,41.0,39.0,30.01,ENE,65,0.0,1.0,91,0.06,,,0.06,,2013-11-15 12:52:00,
2013-11-15 07:11:00,41.0,39.0,30.01,ENE,65,0.0,1.0,91,0.06,,,0.06,,2013-11-15 13:11:00,
2013-11-15 07:22:00,41.0,39.0,30.01,ENE,70,0.0,1.0,92,0.07,,,0.07,,2013-11-15 13:22:00,
2013-11-15 07:42:00,42.0,40.0,30.02,ENE,74,0.0,1.0,92,0.05,,,0.07,,2013-11-15 13:42:00,
2013-11-15 07:52:00,42.0,40.0,30.02,ENE,74,0.0,1.0,92,0.03,,,0.08,,2013-11-15 13:52:00,
2013-11-15 10:23:00,49.0,46.0,30.01,ENE,63,2.0,6.0,88,0.00,,,0.08,,2013-11-15 16:23:00,
2013-11-15 10:43:00,50.0,46.0,30.01,SE,141,0.0,5.0,85,0.00,,,0.08,,2013-11-15 16:43:00,
2013-11-15 10:53:00,52.0,46.0,30.01,West,281,0.0,4.0,81,0.00,,,0.08,,2013-11-15 16:53:00,
2013-11-15 11:22:00,54.0,47.0,29.98,WNW,285,1.0,5.0,77,0.00,,,0.08,,2013-11-15 17:22:00,
2013-11-15 11:42:00,55.0,47.0,29.98,West,281,1.0,6.0,75,0.00,,,0.08,,2013-11-15 17:42:00,
2013-11-15 11:52:00,56.0,48.0,29.98,ESE,120,2.0,7.0,75,0.00,,,0.08,,2013-11-15 17:52:00,
2013-11-15 12:12:00,57.0,48.0,29.97,West,271,1.0,5.0,71,0.00,,,0.08,,2013-11-15 18:12:00,
2013-11-15 12:22:00,57.0,47.0,29.97,East,80,2.0,6.0,69,0.00,,,0.08,,2013-11-15 18:22:00,
2013-11-15 12:42:00,57.0,48.0,29.96,NNE,31,0.0,6.0,71,0.00,,,0.08,,2013-11-15 18:42:00,
2013-11-15 12:52:00,58.0,47.0,29.95,ENE,65,4.0,8.0,68,0.00,,,0.08,,2013-11-15 18:52:00,
2013-11-15 13:12:00,58.0,47.0,29.94,ENE,72,2.0,6.0,66,0.00,,,0.08,,2013-11-15 19:12:00,
2013-11-15 13:21:00,57.0,47.0,29.93,WSW,237,1.0,8.0,69,0.00,,,0.08,,2013-11-15 19:21:00,
2013-11-15 13:42:00,57.0,47.0,29.93,NE,50,4.0,10.0,69,0.00,,,0.08,,2013-11-15 19:42:00,
2013-11-15 13:52:00,56.0,46.0,29.93,NNE,22,0.0,10.0,70,0.00,,,0.08,,2013-11-15 19:52:00,
2013-11-15 14:12:00,54.0,46.0,29.92,East,88,0.0,8.0,74,0.00,,,0.08,,2013-11-15 20:12:00,
2013-11-15 14:22:00,54.0,46.0,29.92,East,80,1.0,5.0,75,0.00,,,0.08,,2013-11-15 20:22:00,
2013-11-15 14:42:00,55.0,48.0,29.92,SE,143,0.0,9.0,76,0.00,,,0.08,,2013-11-15 20:42:00,
2013-11-15 14:52:00,55.0,47.0,29.92,East,87,2.0,5.0,75,0.00,,,0.08,,2013-11-15 20:52:00,
2013-11-15 15:12:00,55.0,47.0,29.93,South,175,1.0,8.0,75,0.00,,,0.08,,2013-11-15 21:12:00,
2013-11-15 15:21:00,54.0,47.0,29.92,East,89,2.0,6.0,76,0.00,,,0.08,,2013-11-15 21:21:00,
2013-11-15 15:43:00,54.0,47.0,29.91,East,82,0.0,8.0,78,0.00,,,0.08,,2013-11-15 21:43:00,
2013-11-15 15:54:00,54.0,48.0,29.90,East,86,1.0,5.0,79,0.00,,,0.08,,2013-11-15 21:54:00,
2013-11-15 16:14:00,55.0,48.0,29.89,East,88,1.0,6.0,78,0.00,,,0.08,,2013-11-15 22:14:00,
2013-11-15 16:24:00,54.0,48.0,29.89,East,80,0.0,7.0,79,0.00,,,0.08,,2013-11-15 22:24:00,
2013-11-15 16:43:00,54.0,48.0,29.90,ENE,62,1.0,5.0,80,0.00,,,0.08,,2013-11-15 22:43:00,
2013-11-15 16:53:00,53.0,47.0,29.89,NNE,32,0.0,4.0,81,0.00,,,0.08,,2013-11-15 22:53:00,
2013-11-15 17:12:00,52.0,47.0,29.88,NNE,27,1.0,6.0,82,0.00,,,0.08,,2013-11-15 23:12:00,
2013-11-15 17:22:00,52.0,47.0,29.86,ENE,76,1.0,4.0,83,0.00,,,0.08,,2013-11-15 23:22:00,
2013-11-15 17:43:00,52.0,47.0,29.86,WSW,254,0.0,6.0,84,0.00,,,0.08,,2013-11-15 23:43:00,
2013-11-15 17:52:00,52.0,48.0,29.86,NE,41,1.0,6.0,85,0.00,,,0.08,,2013-11-15 23:52:00,
2013-11-15 18:11:00,52.0,48.0,29.86,ENE,57,2.0,6.0,86,0.00,,,0.08,,2013-11-16 00:11:00,
2013-11-15 18:22:00,52.0,48.0,29.87,ENE,71,0.0,4.0,86,0.00,,,0.08,,2013-11-16 00:22:00,
2013-11-15 18:42:00,52.0,48.0,29.87,West,277,0.0,4.0,86,0.00,,,0.08,,2013-11-16 00:42:00,
2013-11-15 18:52:00,52.0,48.0,29.87,SSE,157,0.0,6.0,87,0.00,,,0.08,,2013-11-16 00:52:00,
2013-11-15 19:12:00,51.0,47.0,29.88,SSW,210,0.0,6.0,87,0.00,,,0.08,,2013-11-16 01:12:00,
2013-11-15 19:21:00,51.0,47.0,29.88,East,90,0.0,2.0,87,0.00,,,0.08,,2013-11-16 01:21:00,
2013-11-15 19:42:00,51.0,48.0,29.88,ENE,74,0.0,2.0,88,0.00,,,0.08,,2013-11-16 01:42:00,
2013-11-15 19:52:00,51.0,48.0,29.88,East,86,0.0,7.0,88,0.00,,,0.08,,2013-11-16 01:52:00,
2013-11-15 20:12:00,51.0,48.0,29.89,SSW,207,0.0,4.0,88,0.00,,,0.08,,2013-11-16 02:12:00,
2013-11-15 20:22:00,51.0,48.0,29.88,ENE,67,0.0,4.0,88,0.00,,,0.08,,2013-11-16 02:22:00,
2013-11-15 20:42:00,51.0,48.0,29.88,NE,51,1.0,8.0,89,0.00,,,0.08,,2013-11-16 02:42:00,
2013-11-15 20:52:00,51.0,48.0,29.88,South,187,0.0,9.0,89,0.00,,,0.08,,2013-11-16 02:52:00,
2013-11-15 21:11:00,51.0,48.0,29.90,WNW,299,0.0,4.0,89,0.00,,,0.08,,2013-11-16 03:11:00,
2013-11-15 21:22:00,51.0,48.0,29.89,North,11,0.0,4.0,89,0.00,,,0.08,,2013-11-16 03:22:00,
2013-11-15 21:44:00,50.0,47.0,29.89,ENE,74,0.0,4.0,90,0.00,,,0.08,,2013-11-16 03:44:00,
2013-11-15 21:54:00,50.0,47.0,29.90,ENE,74,0.0,2.0,91,0.00,,,0.08,,2013-11-16 03:54:00,
2013-11-15 22:23:00,50.0,48.0,29.89,NNE,33,0.0,4.0,92,0.00,,,0.08,,2013-11-16 04:23:00,
2013-11-15 22:43:00,50.0,48.0,29.88,East,83,0.0,4.0,92,0.00,,,0.08,,2013-11-16 04:43:00,
2013-11-15 22:53:00,51.0,49.0,29.88,ENE,73,1.0,5.0,92,0.00,,,0.08,,2013-11-16 04:53:00,
2013-11-15 23:13:00,51.0,49.0,29.88,ENE,62,0.0,2.0,92,0.00,,,0.08,,2013-11-16 05:13:00,
2013-11-15 23:23:00,51.0,49.0,29.88,NE,51,0.0,4.0,92,0.00,,,0.08,,2013-11-16 05:23:00,
2013-11-15 23:43:00,51.0,48.0,29.88,NE,45,0.0,2.0,91,0.00,,,0.08,,2013-11-16 05:43:00,
2013-11-15 23:52:00,50.0,47.0,29.88,ENE,78,0.0,1.0,91,0.00,,,0.08,,2013-11-16 05:52:00,